Location: Dompnac
(44.5644°N, 4.1026°E)
Time: 04:32:21
(UTC+00:00)

Cosmos 2082 Rocket - Pass Details

Date: 22 June 2021
Orbit: 832 x 855 km, 71.0° (Epoch: 03 August)

Event Time Altitude Azimuth Distance (km) Brightness Sun altitude
Exits shadow 02:34:17 - 168° (SSE) 3,263 4.9 -11.9°
Reaches altitude 10° 02:36:46 10° 157° (SSE) 2,433 4.3 -11.6°
Maximum altitude 02:41:18 26° 103° (ESE) 1,579 4.0 -11.1°
Drops below altitude 10° 02:45:52 10° 48° (NE) 2,450 6.2 -10.5°
Sets 02:48:39 0° 36° (NE) 3,391 7.6 -10.2°
